Location: Unspecified
(0.0000°N, 0.0000°E)
Time: 17:42:50
(UTC+00:00)

ARIANE 6 FM1 Upper Stage - Pass Details

Date: 15 May 2026
Orbit: 526 x 601 km, 62.0° (Epoch: 21 May)

Event Time Altitude Azimuth Distance (km) Brightness Sun altitude
Rises 18:16:13 0° 9° (N) 2,651 6.2 -4.7°
Reaches altitude 10° 18:19:35 10° 40° (NE) 1,777 5.0 -5.5°
Maximum altitude 18:21:16 12° 65° (ENE) 1,642 4.6 -5.9°
Drops below altitude 10° 18:22:57 10° 90° (E) 1,795 4.6 -6.3°
Enters shadow 18:23:54 - 101° (ESE) 1,989 4.8 -6.5°
